Location: Great Malvern
(52.1167°N, 2.3167°W)
Time: 01:24:56
(UTC+00:00)

Cosmos 2251 Rocket - Pass Details

Date: 18 September 2020
Orbit: 765 x 792 km, 74.0° (Epoch: 23 October)

Event Time Altitude Azimuth Distance (km) Brightness Sun altitude
Rises 21:46:21 0° 334° (NNW) 3,303 7.9 -29.2°
Reaches altitude 10° 21:48:45 10° 334° (NNW) 2,369 6.9 -29.5°
Enters shadow 21:53:18 64° 334° (NNW) 875 3.9 -29.9°
